Year,Month,Day,Hour,Minute,Value (Times are PST for windgust in km/hr)
2012,01,25,00,00,20.90
2012,01,25,00,01,22.50
2012,01,25,00,02,19.30
2012,01,25,00,03,25.70
2012,01,25,00,04,45.10
2012,01,25,00,05,20.90
2012,01,25,00,06,16.10
2012,01,25,00,07,12.90
2012,01,25,00,08,9.60
2012,01,25,00,09,20.90
2012,01,25,00,10,20.90
2012,01,25,00,11,11.30
2012,01,25,00,12,20.90
2012,01,25,00,13,9.60
2012,01,25,00,14,4.80
2012,01,25,00,15,8.10
2012,01,25,00,16,9.60
2012,01,25,00,17,17.70
2012,01,25,00,18,19.30
2012,01,25,00,19,9.60
2012,01,25,00,20,17.70
2012,01,25,00,21,12.90
2012,01,25,00,22,11.30
2012,01,25,00,23,11.30
2012,01,25,00,24,20.90
2012,01,25,00,25,4.80
2012,01,25,00,26,12.90
2012,01,25,00,27,9.60
2012,01,25,00,28,8.10
2012,01,25,00,29,9.60
2012,01,25,00,30,9.60
2012,01,25,00,31,8.10
2012,01,25,00,32,19.30
2012,01,25,00,33,24.20
2012,01,25,00,34,29.00
2012,01,25,00,35,8.10
2012,01,25,00,36,16.10
2012,01,25,00,37,9.60
2012,01,25,00,38,22.50
2012,01,25,00,39,8.10
2012,01,25,00,40,25.70
2012,01,25,00,41,22.50
2012,01,25,00,42,8.10
2012,01,25,00,43,16.10
2012,01,25,00,46,20.90
2012,01,25,00,47,17.70
2012,01,25,00,48,9.60
2012,01,25,00,49,3.20
2012,01,25,00,50,8.10
2012,01,25,00,51,6.40
2012,01,25,00,52,3.20
2012,01,25,00,53,8.10
2012,01,25,00,54,9.60
2012,01,25,00,55,8.10
2012,01,25,00,56,22.50
2012,01,25,00,57,17.70
2012,01,25,00,58,14.50
2012,01,25,00,59,17.70
2012,01,25,01,00,11.30
2012,01,25,01,01,20.90
2012,01,25,01,02,3.20
2012,01,25,01,03,3.20
2012,01,25,01,04,9.60
2012,01,25,01,05,9.60
2012,01,25,01,06,11.30
2012,01,25,01,07,33.80
2012,01,25,01,08,30.60
2012,01,25,01,09,11.30
2012,01,25,01,10,8.10
2012,01,25,01,11,9.60
2012,01,25,01,12,11.30
2012,01,25,01,13,9.60
2012,01,25,01,14,16.10
2012,01,25,01,15,16.10
2012,01,25,01,16,9.60
2012,01,25,01,17,9.60
2012,01,25,01,18,17.70
2012,01,25,01,19,9.60
2012,01,25,01,20,11.30
2012,01,25,01,21,6.40
2012,01,25,01,22,27.40
2012,01,25,01,23,16.10
2012,01,25,01,24,11.30
2012,01,25,01,25,24.20
2012,01,25,01,26,17.70
2012,01,25,01,27,6.40
2012,01,25,01,28,9.60
2012,01,25,01,29,11.30
2012,01,25,01,30,8.10
2012,01,25,01,31,8.10
2012,01,25,01,32,9.60
2012,01,25,01,33,14.50
2012,01,25,01,34,9.60
2012,01,25,01,35,25.70
2012,01,25,01,36,27.40
2012,01,25,01,37,6.40
2012,01,25,01,38,9.60
2012,01,25,01,39,27.40
2012,01,25,01,40,9.60
2012,01,25,01,41,9.60
2012,01,25,01,42,8.10
2012,01,25,01,43,19.30
2012,01,25,01,44,20.90
2012,01,25,01,45,29.00
2012,01,25,01,46,8.10
2012,01,25,01,47,20.90
2012,01,25,01,48,37.00
2012,01,25,01,49,29.00
2012,01,25,01,50,9.60
2012,01,25,01,51,9.60
2012,01,25,01,52,19.30
2012,01,25,01,53,9.60
2012,01,25,01,54,16.10
2012,01,25,01,55,17.70
2012,01,25,01,56,19.30
2012,01,25,01,57,6.40
2012,01,25,01,58,4.80
2012,01,25,01,59,8.10
2012,01,25,02,00,6.40
2012,01,25,02,01,11.30
2012,01,25,02,02,8.10
2012,01,25,02,03,4.80
2012,01,25,02,04,4.80
2012,01,25,02,05,11.30
2012,01,25,02,06,6.40
2012,01,25,02,07,9.60
2012,01,25,02,08,6.40
2012,01,25,02,09,6.40
2012,01,25,02,10,11.30
2012,01,25,02,11,1.60
2012,01,25,02,12,4.80
2012,01,25,02,13,4.80
2012,01,25,02,14,8.10
2012,01,25,02,15,17.70
2012,01,25,02,16,12.90
2012,01,25,02,17,6.40
2012,01,25,02,18,11.30
2012,01,25,02,19,17.70
2012,01,25,02,20,19.30
2012,01,25,02,21,19.30
2012,01,25,02,22,9.60
2012,01,25,02,23,16.10
2012,01,25,02,24,6.40
2012,01,25,02,25,4.80
2012,01,25,02,26,8.10
2012,01,25,02,27,6.40
2012,01,25,02,28,9.60
2012,01,25,02,29,6.40
2012,01,25,02,30,1.60
2012,01,25,02,31,4.80
2012,01,25,02,32,14.50
2012,01,25,02,33,20.90
2012,01,25,02,34,6.40
2012,01,25,02,35,4.80
2012,01,25,02,36,4.80
2012,01,25,02,37,1.60
2012,01,25,02,39,3.20
2012,01,25,02,40,4.80
2012,01,25,02,41,3.20
2012,01,25,02,43,8.10
2012,01,25,02,44,3.20
2012,01,25,02,45,3.20
2012,01,25,02,46,6.40
2012,01,25,02,47,9.60
2012,01,25,02,49,4.80
2012,01,25,02,50,1.60
2012,01,25,02,51,1.60
2012,01,25,02,54,3.20
2012,01,25,02,55,1.60
2012,01,25,02,56,1.60
2012,01,25,02,57,1.60
2012,01,25,02,58,8.10
2012,01,25,02,59,3.20
2012,01,25,03,00,11.30
2012,01,25,03,01,9.60
2012,01,25,03,02,4.80
2012,01,25,03,03,4.80
2012,01,25,03,04,3.20
2012,01,25,03,05,8.10
2012,01,25,03,06,11.30
2012,01,25,03,07,11.30
2012,01,25,03,08,4.80
2012,01,25,03,09,4.80
2012,01,25,03,10,4.80
2012,01,25,03,11,1.60
2012,01,25,03,12,1.60
2012,01,25,03,13,1.60
2012,01,25,03,15,1.60
2012,01,25,03,16,1.60
2012,01,25,03,35,3.20
2012,01,25,03,36,1.60
2012,01,25,03,37,3.20
2012,01,25,03,38,8.10
2012,01,25,03,39,8.10
2012,01,25,03,40,9.60
2012,01,25,03,41,9.60
2012,01,25,03,42,8.10
2012,01,25,03,43,1.60
2012,01,25,03,44,6.40
2012,01,25,03,45,4.80
2012,01,25,03,46,1.60
2012,01,25,03,48,1.60
2012,01,25,03,49,16.10
2012,01,25,03,50,8.10
2012,01,25,03,51,3.20
2012,01,25,03,54,3.20
2012,01,25,03,55,1.60
2012,01,25,03,59,3.20
2012,01,25,04,00,4.80
2012,01,25,04,01,4.80
2012,01,25,04,02,3.20
2012,01,25,04,03,4.80
2012,01,25,04,04,3.20
2012,01,25,04,05,3.20
2012,01,25,04,06,4.80
2012,01,25,04,07,4.80
2012,01,25,04,08,6.40
2012,01,25,04,09,6.40
2012,01,25,04,10,1.60
2012,01,25,04,11,3.20
2012,01,25,04,12,1.60
2012,01,25,04,19,1.60
2012,01,25,04,20,3.20
2012,01,25,04,21,1.60
2012,01,25,04,22,3.20
2012,01,25,04,23,1.60
2012,01,25,04,27,3.20
2012,01,25,04,53,1.60
2012,01,25,05,22,1.60
2012,01,25,05,23,3.20
2012,01,25,05,24,3.20
2012,01,25,05,25,3.20
2012,01,25,05,26,3.20
2012,01,25,05,27,1.60
2012,01,25,05,36,1.60
2012,01,25,05,37,3.20
2012,01,25,05,38,3.20
2012,01,25,05,40,4.80
2012,01,25,05,41,3.20
2012,01,25,05,42,1.60
2012,01,25,05,43,8.10
2012,01,25,05,44,9.60
2012,01,25,05,45,4.80
2012,01,25,05,46,6.40
2012,01,25,05,47,9.60
2012,01,25,05,48,6.40
2012,01,25,05,49,6.40
2012,01,25,05,50,4.80
2012,01,25,05,51,8.10
2012,01,25,05,52,4.80
2012,01,25,05,53,6.40
2012,01,25,05,54,9.60
2012,01,25,05,55,9.60
2012,01,25,05,56,4.80
2012,01,25,05,57,4.80
2012,01,25,05,58,6.40
2012,01,25,05,59,4.80
2012,01,25,06,00,6.40
2012,01,25,06,01,4.80
2012,01,25,06,02,3.20
2012,01,25,06,03,1.60
2012,01,25,06,04,3.20
2012,01,25,06,05,4.80
2012,01,25,06,06,4.80
2012,01,25,06,07,8.10
2012,01,25,06,08,6.40
2012,01,25,06,09,8.10
2012,01,25,06,10,1.60
2012,01,25,06,11,1.60
2012,01,25,06,13,1.60
2012,01,25,06,14,3.20
2012,01,25,06,15,3.20
2012,01,25,06,16,3.20
2012,01,25,06,17,1.60
2012,01,25,06,21,3.20
2012,01,25,06,22,1.60
2012,01,25,06,24,3.20
2012,01,25,06,25,1.60
2012,01,25,06,33,1.60
2012,01,25,06,37,1.60
2012,01,25,06,40,1.60
2012,01,25,06,42,1.60
2012,01,25,06,43,1.60
2012,01,25,06,44,1.60
2012,01,25,06,51,1.60
2012,01,25,06,52,3.20
2012,01,25,06,53,1.60
2012,01,25,06,56,1.60
2012,01,25,07,12,3.20
2012,01,25,07,13,3.20
2012,01,25,07,14,3.20
2012,01,25,07,16,3.20
2012,01,25,07,17,3.20
2012,01,25,07,18,1.60
2012,01,25,07,19,8.10
2012,01,25,07,20,11.30
2012,01,25,07,21,6.40
2012,01,25,07,22,9.60
2012,01,25,07,23,6.40
2012,01,25,07,24,6.40
2012,01,25,07,25,4.80
2012,01,25,07,26,14.50
2012,01,25,07,27,4.80
2012,01,25,07,30,3.20
2012,01,25,07,31,1.60
2012,01,25,07,32,4.80
2012,01,25,07,34,3.20
2012,01,25,07,35,3.20
2012,01,25,07,40,1.60
2012,01,25,07,41,1.60
2012,01,25,07,50,1.60
2012,01,25,08,34,1.60
2012,01,25,08,35,1.60
2012,01,25,08,36,1.60
2012,01,25,08,38,3.20
2012,01,25,08,39,3.20
2012,01,25,08,40,1.60
2012,01,25,08,46,3.20
2012,01,25,08,47,1.60
2012,01,25,08,48,1.60
2012,01,25,08,51,1.60
2012,01,25,08,52,1.60
2012,01,25,08,53,3.20
2012,01,25,08,54,3.20
2012,01,25,08,55,3.20
2012,01,25,08,57,1.60
2012,01,25,08,58,3.20
2012,01,25,08,59,1.60
2012,01,25,09,00,1.60
2012,01,25,09,01,4.80
2012,01,25,09,02,4.80
2012,01,25,09,03,4.80
2012,01,25,09,04,4.80
2012,01,25,09,05,3.20
2012,01,25,09,06,1.60
2012,01,25,09,07,3.20
2012,01,25,09,08,3.20
2012,01,25,09,09,1.60
2012,01,25,09,11,4.80
2012,01,25,09,12,3.20
2012,01,25,09,13,3.20
2012,01,25,09,14,1.60
2012,01,25,09,15,1.60
2012,01,25,09,16,3.20
2012,01,25,09,17,3.20
2012,01,25,09,18,3.20
2012,01,25,09,19,3.20
2012,01,25,09,20,3.20
2012,01,25,09,21,1.60
2012,01,25,09,24,1.60
2012,01,25,09,28,3.20
2012,01,25,09,29,3.20
2012,01,25,09,30,1.60
2012,01,25,09,31,3.20
2012,01,25,09,32,1.60
2012,01,25,09,33,1.60
2012,01,25,09,34,3.20
2012,01,25,09,35,1.60
2012,01,25,09,36,3.20
2012,01,25,09,37,4.80
2012,01,25,09,38,6.40
2012,01,25,09,39,6.40
2012,01,25,09,40,6.40
2012,01,25,09,41,4.80
2012,01,25,09,42,1.60
2012,01,25,09,43,3.20
2012,01,25,09,44,3.20
2012,01,25,09,45,4.80
2012,01,25,09,46,6.40
2012,01,25,09,47,6.40
2012,01,25,09,48,9.60
2012,01,25,09,49,9.60
2012,01,25,09,50,9.60
2012,01,25,09,51,4.80
2012,01,25,09,52,1.60
2012,01,25,09,53,3.20
2012,01,25,09,54,4.80
2012,01,25,09,55,4.80
2012,01,25,09,56,4.80
2012,01,25,09,57,14.50
2012,01,25,09,58,8.10
2012,01,25,09,59,8.10
2012,01,25,10,00,6.40
2012,01,25,10,01,6.40
2012,01,25,10,02,8.10
2012,01,25,10,03,8.10
2012,01,25,10,04,8.10
2012,01,25,10,05,6.40
2012,01,25,10,06,3.20
2012,01,25,10,07,3.20
2012,01,25,10,08,3.20
2012,01,25,10,09,3.20
2012,01,25,10,10,1.60
2012,01,25,10,11,1.60
2012,01,25,10,15,1.60
2012,01,25,10,16,4.80
2012,01,25,10,17,1.60
2012,01,25,10,18,4.80
2012,01,25,10,19,3.20
2012,01,25,10,20,4.80
2012,01,25,10,21,4.80
2012,01,25,10,22,4.80
2012,01,25,10,23,3.20
2012,01,25,10,24,3.20
2012,01,25,10,25,1.60
2012,01,25,10,26,1.60
2012,01,25,10,27,3.20
2012,01,25,10,28,3.20
2012,01,25,10,29,1.60
2012,01,25,10,33,3.20
2012,01,25,10,34,4.80
2012,01,25,10,35,4.80
2012,01,25,10,36,4.80
2012,01,25,10,38,1.60
2012,01,25,10,40,3.20
2012,01,25,10,41,3.20
2012,01,25,10,42,3.20
2012,01,25,10,43,1.60
2012,01,25,10,44,1.60
2012,01,25,10,45,3.20
2012,01,25,10,46,1.60
2012,01,25,10,47,3.20
2012,01,25,10,48,1.60
2012,01,25,10,49,3.20
2012,01,25,10,50,4.80
2012,01,25,10,51,3.20
2012,01,25,10,52,3.20
2012,01,25,10,53,1.60
2012,01,25,10,55,1.60
2012,01,25,10,56,3.20
2012,01,25,10,57,1.60
2012,01,25,10,58,3.20
2012,01,25,10,59,3.20
2012,01,25,11,00,3.20
2012,01,25,11,01,1.60
2012,01,25,11,02,3.20
2012,01,25,11,04,1.60
2012,01,25,11,05,3.20
2012,01,25,11,06,3.20
2012,01,25,11,07,1.60
2012,01,25,11,08,4.80
2012,01,25,11,09,4.80
2012,01,25,11,10,6.40
2012,01,25,11,11,6.40
2012,01,25,11,12,4.80
2012,01,25,11,13,3.20
2012,01,25,11,14,3.20
2012,01,25,11,15,3.20
2012,01,25,11,17,3.20
2012,01,25,11,18,1.60
2012,01,25,11,25,3.20
2012,01,25,11,27,3.20
2012,01,25,11,28,3.20
2012,01,25,11,29,1.60
2012,01,25,11,30,3.20
2012,01,25,11,31,1.60
2012,01,25,11,34,3.20
2012,01,25,11,35,3.20
2012,01,25,11,36,1.60
2012,01,25,11,37,1.60
2012,01,25,11,38,1.60
2012,01,25,11,39,1.60
2012,01,25,11,41,1.60
2012,01,25,11,42,1.60
2012,01,25,11,43,1.60
2012,01,25,11,44,1.60
2012,01,25,11,46,3.20
2012,01,25,11,47,3.20
2012,01,25,11,48,1.60
2012,01,25,11,49,3.20
2012,01,25,11,50,1.60
2012,01,25,11,51,3.20
2012,01,25,11,52,4.80
2012,01,25,11,53,1.60
2012,01,25,11,54,1.60
2012,01,25,11,55,3.20
2012,01,25,11,56,1.60
2012,01,25,11,57,4.80
2012,01,25,11,58,1.60
2012,01,25,11,59,1.60
2012,01,25,12,01,1.60
2012,01,25,12,03,1.60
2012,01,25,12,04,1.60
2012,01,25,12,05,4.80
2012,01,25,12,06,3.20
2012,01,25,12,07,3.20
2012,01,25,12,08,1.60
2012,01,25,12,09,1.60
2012,01,25,12,10,4.80
2012,01,25,12,11,4.80
2012,01,25,12,12,1.60
2012,01,25,12,13,3.20
2012,01,25,12,14,4.80
2012,01,25,12,15,3.20
2012,01,25,12,16,3.20
2012,01,25,12,17,1.60
2012,01,25,12,18,3.20
2012,01,25,12,19,1.60
2012,01,25,12,21,3.20
2012,01,25,12,22,1.60
2012,01,25,12,23,1.60
2012,01,25,12,24,1.60
2012,01,25,12,25,1.60
2012,01,25,12,26,3.20
2012,01,25,12,27,3.20
2012,01,25,12,28,3.20
2012,01,25,12,29,3.20
2012,01,25,12,30,1.60
2012,01,25,12,31,3.20
2012,01,25,12,32,1.60
2012,01,25,12,33,1.60
2012,01,25,12,35,3.20
2012,01,25,12,36,3.20
2012,01,25,12,37,3.20
2012,01,25,12,38,1.60
2012,01,25,12,40,1.60
2012,01,25,12,41,3.20
2012,01,25,12,42,1.60
2012,01,25,12,43,1.60
2012,01,25,12,44,1.60
2012,01,25,12,45,1.60
2012,01,25,12,46,3.20
2012,01,25,12,47,1.60
2012,01,25,12,48,1.60
2012,01,25,12,49,1.60
2012,01,25,12,50,3.20
2012,01,25,12,51,1.60
2012,01,25,12,55,3.20
2012,01,25,12,56,3.20
2012,01,25,12,57,1.60
2012,01,25,12,58,4.80
2012,01,25,12,59,1.60
2012,01,25,13,00,3.20
2012,01,25,13,01,3.20
2012,01,25,13,02,1.60
2012,01,25,13,03,3.20
2012,01,25,13,04,3.20
2012,01,25,13,05,4.80
2012,01,25,13,06,3.20
2012,01,25,13,07,1.60
2012,01,25,13,08,1.60
2012,01,25,13,09,3.20
2012,01,25,13,10,1.60
2012,01,25,13,11,1.60
2012,01,25,13,12,1.60
2012,01,25,13,14,1.60
2012,01,25,13,15,1.60
2012,01,25,13,36,3.20
2012,01,25,13,37,1.60
2012,01,25,13,38,1.60
2012,01,25,13,39,1.60
2012,01,25,13,44,3.20
2012,01,25,13,46,3.20
2012,01,25,13,47,1.60
2012,01,25,13,48,1.60
2012,01,25,13,49,3.20
2012,01,25,13,50,4.80
2012,01,25,13,51,4.80
2012,01,25,13,52,6.40
2012,01,25,13,53,4.80
2012,01,25,13,54,1.60
2012,01,25,13,55,1.60
2012,01,25,13,56,3.20
2012,01,25,13,57,1.60
2012,01,25,13,58,1.60
2012,01,25,13,59,1.60
2012,01,25,14,02,1.60
2012,01,25,14,03,3.20
2012,01,25,14,04,1.60
2012,01,25,14,08,3.20
2012,01,25,14,09,6.40
2012,01,25,14,10,20.90
2012,01,25,14,11,17.70
2012,01,25,14,12,14.50
2012,01,25,14,13,6.40
2012,01,25,14,14,1.60
2012,01,25,14,15,3.20
2012,01,25,14,16,3.20
2012,01,25,14,17,3.20
2012,01,25,14,18,3.20
2012,01,25,14,23,1.60
2012,01,25,14,24,1.60
2012,01,25,14,25,1.60
2012,01,25,14,26,1.60
2012,01,25,14,29,3.20
2012,01,25,14,30,3.20
2012,01,25,14,31,1.60
2012,01,25,14,32,1.60
2012,01,25,14,33,1.60
2012,01,25,14,35,1.60
2012,01,25,14,36,1.60
2012,01,25,14,38,3.20
2012,01,25,14,39,3.20
2012,01,25,14,40,1.60
2012,01,25,14,41,3.20
2012,01,25,14,42,3.20
2012,01,25,14,43,8.10
2012,01,25,14,44,6.40
2012,01,25,14,45,6.40
2012,01,25,14,47,3.20
2012,01,25,14,48,1.60
2012,01,25,14,50,3.20
2012,01,25,14,51,1.60
2012,01,25,14,52,1.60
2012,01,25,14,54,3.20
2012,01,25,14,55,1.60
2012,01,25,14,56,1.60
2012,01,25,14,59,3.20
2012,01,25,15,02,1.60
2012,01,25,15,03,3.20
2012,01,25,15,04,3.20
2012,01,25,15,05,3.20
2012,01,25,15,06,4.80
2012,01,25,15,07,3.20
2012,01,25,15,08,1.60
2012,01,25,15,09,1.60
2012,01,25,15,10,3.20
2012,01,25,15,11,1.60
2012,01,25,15,12,3.20
2012,01,25,15,13,4.80
2012,01,25,15,14,3.20
2012,01,25,15,15,1.60
2012,01,25,15,16,1.60
2012,01,25,15,17,3.20
2012,01,25,15,18,9.60
2012,01,25,15,19,6.40
2012,01,25,15,20,4.80
2012,01,25,15,21,4.80
2012,01,25,15,22,6.40
2012,01,25,15,23,3.20
2012,01,25,15,26,1.60
2012,01,25,15,27,3.20
2012,01,25,15,28,4.80
2012,01,25,15,29,1.60
2012,01,25,15,30,3.20
2012,01,25,15,31,1.60
2012,01,25,15,32,1.60
2012,01,25,15,33,3.20
2012,01,25,15,34,1.60
2012,01,25,15,35,4.80
2012,01,25,15,36,6.40
2012,01,25,15,37,4.80
2012,01,25,15,38,1.60
2012,01,25,15,39,6.40
2012,01,25,15,40,20.90
2012,01,25,15,41,4.80
2012,01,25,15,42,3.20
2012,01,25,15,44,1.60
2012,01,25,15,46,1.60
2012,01,25,15,47,3.20
2012,01,25,15,48,9.60
2012,01,25,15,49,6.40
2012,01,25,15,50,3.20
2012,01,25,15,51,1.60
2012,01,25,15,52,4.80
2012,01,25,15,53,6.40
2012,01,25,15,54,6.40
2012,01,25,15,55,1.60
2012,01,25,15,56,3.20
2012,01,25,15,57,1.60
2012,01,25,15,58,6.40
2012,01,25,15,59,4.80
2012,01,25,16,00,4.80
2012,01,25,16,01,1.60
2012,01,25,16,02,4.80
2012,01,25,16,03,4.80
2012,01,25,16,04,8.10
2012,01,25,16,05,11.30
2012,01,25,16,06,9.60
2012,01,25,16,07,12.90
2012,01,25,16,08,17.70
2012,01,25,16,09,9.60
2012,01,25,16,10,16.10
2012,01,25,16,11,12.90
2012,01,25,16,12,4.80
2012,01,25,16,13,4.80
2012,01,25,16,14,1.60
2012,01,25,16,15,4.80
2012,01,25,16,18,1.60
2012,01,25,16,19,6.40
2012,01,25,16,20,9.60
2012,01,25,16,21,6.40
2012,01,25,16,22,1.60
2012,01,25,16,23,3.20
2012,01,25,16,24,1.60
2012,01,25,16,25,3.20
2012,01,25,16,26,3.20
2012,01,25,16,27,4.80
2012,01,25,16,28,3.20
2012,01,25,16,29,1.60
2012,01,25,16,30,1.60
2012,01,25,16,31,3.20
2012,01,25,16,33,1.60
2012,01,25,16,37,1.60
2012,01,25,16,38,1.60
2012,01,25,16,39,1.60
2012,01,25,16,40,1.60
2012,01,25,16,45,3.20
2012,01,25,16,46,1.60
2012,01,25,16,47,4.80
2012,01,25,16,48,1.60
2012,01,25,16,50,1.60
2012,01,25,16,56,1.60
2012,01,25,16,57,1.60
2012,01,25,16,58,3.20
2012,01,25,16,59,3.20
2012,01,25,17,03,1.60
2012,01,25,17,04,3.20
2012,01,25,17,05,3.20
2012,01,25,17,08,3.20
2012,01,25,17,09,3.20
2012,01,25,17,12,3.20
2012,01,25,17,13,1.60
2012,01,25,17,14,3.20
2012,01,25,17,15,3.20
2012,01,25,17,18,3.20
2012,01,25,17,19,3.20
2012,01,25,17,20,3.20
2012,01,25,17,22,3.20
2012,01,25,17,26,3.20
2012,01,25,17,27,3.20
2012,01,25,17,28,4.80
2012,01,25,17,29,3.20
2012,01,25,17,30,4.80
2012,01,25,17,31,4.80
2012,01,25,17,32,3.20
2012,01,25,17,33,3.20
2012,01,25,17,34,4.80
2012,01,25,17,35,4.80
2012,01,25,17,36,11.30
2012,01,25,17,37,8.10
2012,01,25,17,38,6.40
2012,01,25,17,39,4.80
2012,01,25,17,40,16.10
2012,01,25,17,41,8.10
2012,01,25,17,42,8.10
2012,01,25,17,43,9.60
2012,01,25,17,44,4.80
2012,01,25,17,45,6.40
2012,01,25,17,46,6.40
2012,01,25,17,47,6.40
2012,01,25,17,48,8.10
2012,01,25,17,49,11.30
2012,01,25,17,50,1.60
2012,01,25,17,51,3.20
2012,01,25,17,52,8.10
2012,01,25,17,53,8.10
2012,01,25,17,54,4.80
2012,01,25,17,55,4.80
2012,01,25,17,56,9.60
2012,01,25,17,57,6.40
2012,01,25,17,58,11.30
2012,01,25,17,59,8.10
2012,01,25,18,00,9.60
2012,01,25,18,01,3.20
2012,01,25,18,02,4.80
2012,01,25,18,03,1.60
2012,01,25,18,04,8.10
2012,01,25,18,05,16.10
2012,01,25,18,06,8.10
2012,01,25,18,07,6.40
2012,01,25,18,08,9.60
2012,01,25,18,09,9.60
2012,01,25,18,10,8.10
2012,01,25,18,11,4.80
2012,01,25,18,12,4.80
2012,01,25,18,13,12.90
2012,01,25,18,14,9.60
2012,01,25,18,15,4.80
2012,01,25,18,16,3.20
2012,01,25,18,17,3.20
2012,01,25,18,18,3.20
2012,01,25,18,19,1.60
2012,01,25,18,20,8.10
2012,01,25,18,21,12.90
2012,01,25,18,22,1.60
2012,01,25,18,23,3.20
2012,01,25,18,24,3.20
2012,01,25,18,25,6.40
2012,01,25,18,26,9.60
2012,01,25,18,27,9.60
2012,01,25,18,28,6.40
2012,01,25,18,29,9.60
2012,01,25,18,30,1.60
2012,01,25,18,31,4.80
2012,01,25,18,32,3.20
2012,01,25,18,33,8.10
2012,01,25,18,34,1.60
2012,01,25,18,35,3.20
2012,01,25,18,36,3.20
2012,01,25,18,37,6.40
2012,01,25,18,38,6.40
2012,01,25,18,39,6.40
2012,01,25,18,40,6.40
2012,01,25,18,41,8.10
2012,01,25,18,42,3.20
2012,01,25,18,43,3.20
2012,01,25,18,45,1.60
2012,01,25,18,46,1.60
2012,01,25,18,47,4.80
2012,01,25,18,49,1.60
2012,01,25,18,50,4.80
2012,01,25,18,51,9.60
2012,01,25,18,52,6.40
2012,01,25,18,53,3.20
2012,01,25,18,54,3.20
2012,01,25,18,55,1.60
2012,01,25,18,56,1.60
2012,01,25,18,57,4.80
2012,01,25,18,58,4.80
2012,01,25,18,59,3.20
2012,01,25,19,00,3.20
2012,01,25,19,01,4.80
2012,01,25,19,02,4.80
2012,01,25,19,03,4.80
2012,01,25,19,04,3.20
2012,01,25,19,05,8.10
2012,01,25,19,06,3.20
2012,01,25,19,07,3.20
2012,01,25,19,08,6.40
2012,01,25,19,09,1.60
2012,01,25,19,10,1.60
2012,01,25,19,11,1.60
2012,01,25,19,13,1.60
2012,01,25,19,22,1.60
2012,01,25,19,31,1.60
2012,01,25,19,32,3.20
2012,01,25,19,33,1.60
2012,01,25,19,34,1.60
2012,01,25,19,35,1.60
2012,01,25,19,38,1.60
2012,01,25,19,39,1.60
2012,01,25,19,43,1.60
2012,01,25,19,44,3.20
2012,01,25,19,45,4.80
2012,01,25,19,46,3.20
2012,01,25,19,47,3.20
2012,01,25,19,48,6.40
2012,01,25,19,49,4.80
2012,01,25,19,50,4.80
2012,01,25,19,51,6.40
2012,01,25,19,52,1.60
2012,01,25,19,53,3.20
2012,01,25,19,54,3.20
2012,01,25,19,55,3.20
2012,01,25,19,59,1.60
2012,01,25,20,02,1.60
2012,01,25,20,05,1.60
2012,01,25,20,06,1.60
2012,01,25,20,26,3.20
2012,01,25,20,27,1.60
2012,01,25,20,31,1.60
2012,01,25,21,03,1.60
2012,01,25,21,07,1.60
2012,01,25,21,08,3.20
2012,01,25,21,09,1.60
2012,01,25,21,10,1.60
2012,01,25,21,35,1.60
2012,01,25,21,36,1.60
2012,01,25,21,42,1.60
2012,01,25,21,46,1.60
2012,01,25,21,48,3.20
2012,01,25,21,50,1.60
2012,01,25,21,51,1.60
2012,01,25,21,56,1.60
2012,01,25,21,57,1.60
2012,01,25,22,05,1.60
2012,01,25,22,06,3.20
2012,01,25,22,07,1.60
2012,01,25,22,08,1.60
2012,01,25,22,25,1.60
2012,01,25,22,26,1.60
2012,01,25,22,29,1.60
2012,01,25,22,30,1.60
2012,01,25,22,35,1.60
2012,01,25,22,36,1.60
2012,01,25,22,37,1.60
2012,01,25,22,38,1.60
2012,01,25,22,40,1.60
2012,01,25,22,41,3.20
2012,01,25,22,42,1.60
2012,01,25,22,47,1.60
2012,01,25,22,50,3.20
2012,01,25,22,51,3.20
2012,01,25,22,52,3.20
2012,01,25,22,53,4.80
2012,01,25,22,54,9.60
2012,01,25,22,55,1.60
2012,01,25,22,56,3.20
2012,01,25,22,57,3.20
2012,01,25,23,01,1.60
2012,01,25,23,02,4.80
2012,01,25,23,03,4.80
2012,01,25,23,05,1.60
2012,01,25,23,06,4.80
2012,01,25,23,07,3.20
2012,01,25,23,08,1.60
2012,01,25,23,16,3.20
2012,01,25,23,17,1.60
2012,01,25,23,18,3.20
2012,01,25,23,19,3.20
2012,01,25,23,20,1.60
2012,01,25,23,29,3.20
2012,01,25,23,30,3.20
2012,01,25,23,36,1.60
2012,01,25,23,37,1.60
2012,01,25,23,38,1.60
2012,01,25,23,39,3.20
2012,01,25,23,40,1.60
2012,01,25,23,41,1.60
2012,01,25,23,42,1.60
2012,01,25,23,43,1.60
2012,01,25,23,44,1.60
2012,01,25,23,47,1.60
2012,01,25,23,49,1.60
2012,01,25,23,50,1.60
2012,01,25,23,51,3.20
2012,01,25,23,52,1.60
2012,01,25,23,57,1.60
2012,01,25,23,58,1.60
